Wind_Speed
26 27 28 29 29 30 30 29 29 28 29 30 32 33 35 37 39 40 40 40 39 39 39 39 39 40 40 41 41 41 42 42 43 43 43 44 44 45 45 46 46 47 48
27 28 28 28 29 30 29 28 28 29 30 32 34 36 38 40 41 41 41 40 40 39 40 40 40 41 42 43 43 44 45 46 46 47 48 48 49 49 49 50 51 51 52
27 28 28 28 30 30 30 29 30 31 33 36 38 40 41 43 43 43 41 40 40 40 41 42 43 44 45 46 47 48 49 50 51 52 53 54 54 55 55 56 56 57 57
27 28 29 30 31 31 30 31 32 34 37 39 41 43 44 44 43 42 41 41 41 42 43 44 45 47 48 49 51 52 53 54 56 57 58 59 60 60 61 61 61 62 62
28 29 30 31 32 32 32 33 35 38 40 41 42 44 43 42 41 41 41 42 43 44 46 47 49 51 52 54 55 57 58 59 60 61 61 62 63 63 64 64 65 65 66
30 31 32 33 33 33 34 36 38 40 41 42 43 43 42 42 42 42 43 45 46 48 50 52 54 56 57 59 60 61 62 63 63 64 64 65 65 66 66 67 67 68 69
32 33 34 34 34 35 36 38 41 42 43 43 42 42 42 42 44 45 46 48 51 53 55 57 59 60 62 63 64 64 65 65 66 66 67 67 68 68 69 69 70 70 71
33 34 35 35 36 37 39 41 43 44 45 44 42 41 42 43 46 48 50 52 55 57 60 62 63 64 65 66 66 66 67 67 68 69 70 71 72 73 74 74 74 75 75
35 36 37 38 39 40 41 43 45 46 46 45 44 45 46 46 47 48 51 55 58 60 63 64 65 66 67 67 68 69 70 71 73 75 77 78 80 81 82 83 83 83 84
37 39 40 41 41 42 44 45 46 46 46 46 48 50 52 54 55 54 54 57 60 62 63 64 65 66 67 69 71 73 76 78 80 82 84 86 88 90 91 92 93 93 93
39 41 42 43 44 45 46 47 47 46 47 49 51 53 56 59 62 63 61 61 62 64 65 65 65 67 70 73 76 79 82 85 88 90 93 95 98 100 102 103 104 104 104
40 42 43 44 45 46 47 47 47 48 50 52 54 57 60 63 65 67 67 66 67 67 67 67 68 71 75 79 83 87 90 94 97 100 103 106 109 111 113 114 115 115 115
41 42 43 44 46 46 47 47 48 50 52 55 58 61 64 67 69 71 72 72 71 71 72 73 75 79 83 88 93 97 102 106 110 113 116 119 121 122 122 122 122 121 120
41 42 44 45 46 47 48 49 51 53 56 59 62 64 67 70 72 74 75 76 75 74 75 77 81 87 93 99 104 109 113 118 121 123 124 124 122 121 119 116 114 111 109
41 43 44 45 46 48 50 51 54 56 59 62 64 67 70 73 75 76 77 78 80 81 80 83 90 96 103 109 115 120 124 125 124 121 116 111 106 103 100 97 95 93 92
41 43 44 46 48 50 52 54 56 59 61 63 66 70 73 75 75 76 78 81 85 89 92 93 99 104 111 118 122 123 120 116 109 101 95 89 86 83 81 79 78 78 77
42 43 45 47 50 52 55 57 58 60 63 66 70 73 74 75 75 78 81 86 92 98 102 104 108 113 116 115 111 105 99 92 85 79 75 71 68 66 64 64 63 63 64
42 44 46 49 52 55 56 58 60 63 66 70 72 73 73 75 78 82 87 92 98 105 111 114 114 113 106 97 90 81 75 70 66 62 59 57 54 52 50 49 48 49 50
43 46 49 52 54 56 57 59 63 66 69 71 72 72 74 78 82 87 93 99 105 110 114 116 111 100 87 76 68 61 56 53 51 50 49 48 46 44 42 40 39 39 39
45 48 51 54 55 56 59 63 66 69 70 70 71 74 78 83 88 94 99 105 110 112 110 104 93 79 67 58 53 48 43 41 42 43 44 43 41 39 38 36 34 33 33
48 51 53 54 56 59 63 66 68 68 69 70 73 78 83 89 94 100 106 110 110 105 96 85 72 61 54 49 43 39 37 35 37 40 38 38 39 38 37 36 34 32 31
50 51 53 56 59 62 65 67 67 67 69 73 77 83 88 94 99 105 108 107 100 90 78 67 57 51 46 41 37 36 34 33 33 36 36 35 37 37 38 36 34 32 30
50 52 55 58 61 64 65 65 66 68 72 78 83 88 93 99 104 106 103 94 81 70 62 54 48 44 39 37 34 33 32 32 35 37 35 32 34 34 34 32 30 28 25
52 54 57 60 62 63 63 65 67 72 77 82 88 93 98 102 105 101 92 77 63 55 50 46 43 40 37 35 34 33 31 30 32 37 37 34 32 30 29 26 23 20 17
53 56 59 60 60 61 63 67 71 76 81 87 92 98 102 103 98 89 75 60 50 45 42 40 39 37 35 36 35 33 31 30 29 32 36 35 31 26 23 20 16 14 12
54 57 58 58 60 62 66 71 76 81 86 91 96 100 101 95 84 72 58 48 42 38 36 34 34 33 34 33 34 34 34 33 32 30 31 29 27 22 18 16 13 12 12
Wind_Direction
277 282 287 291 294 296 298 298 297 295 295 296 297 298 300 300 299 298 297 295 293 291 289 288 288 288 288 288 288 287 286 285 284 283 281 280 278 277 276 275 274 273 271
276 281 286 289 292 295 295 294 293 294 296 298 299 300 301 301 300 298 297 295 293 291 289 287 286 285 284 284 284 284 283 283 282 281 280 279 277 276 275 274 273 272 271
275 280 283 287 291 292 291 289 290 292 295 297 299 300 300 300 299 297 296 295 293 291 290 289 288 287 286 285 284 284 283 282 281 280 279 278 277 276 274 273 272 271 270
274 278 281 285 289 288 287 286 288 291 294 296 297 298 298 298 297 296 295 293 292 291 290 290 289 289 288 287 287 286 285 284 283 282 281 279 278 277 275 274 273 271 270
272 277 280 285 288 288 286 286 288 291 294 295 296 297 297 297 296 295 293 292 291 291 291 290 290 290 289 289 288 287 287 285 284 283 281 280 278 277 276 274 273 271 270
271 277 282 287 288 288 287 287 289 292 294 295 296 297 296 295 294 293 292 292 292 292 292 292 292 291 291 290 289 289 288 286 285 284 282 281 279 277 276 274 273 271 270
273 278 283 286 287 288 288 290 291 293 294 295 295 295 295 294 294 294 294 295 295 295 295 294 294 293 292 292 291 290 289 288 287 285 283 282 280 278 276 275 273 271 270
275 280 284 287 288 289 290 292 293 294 295 295 294 293 293 294 295 297 297 297 297 297 297 297 296 295 294 293 292 290 289 288 286 285 284 282 280 279 277 276 274 272 270
276 281 284 287 289 290 292 293 294 295 295 294 294 294 294 293 292 293 294 295 296 297 297 296 296 294 293 292 290 289 288 287 286 285 283 283 281 280 279 277 275 273 272
277 281 284 287 289 291 293 294 295 295 295 296 296 297 297 298 297 295 294 295 295 296 296 295 294 293 291 290 289 288 287 286 285 285 284 283 282 281 280 279 277 275 273
278 281 285 288 290 292 294 295 296 297 297 297 298 298 298 299 299 298 297 297 297 298 297 295 293 291 290 289 288 288 287 287 286 285 285 284 283 282 281 280 279 277 275
278 282 286 289 291 293 295 296 297 298 299 299 299 298 298 298 298 299 299 298 298 298 297 295 293 292 291 291 290 290 289 289 288 287 286 285 284 283 282 281 279 278 276
280 285 288 290 293 295 296 297 298 299 299 299 299 299 299 300 301 301 301 300 299 299 297 296 295 295 294 294 294 293 293 292 291 290 289 288 286 285 283 281 279 278 276
283 287 290 292 294 295 296 298 299 299 299 299 299 300 301 302 303 303 302 301 300 299 298 298 298 298 298 297 297 296 295 293 292 291 289 288 286 284 282 280 278 276 274
285 289 291 293 295 296 298 298 299 299 299 300 301 301 303 304 304 303 303 302 301 301 300 301 301 301 300 299 298 297 296 294 293 291 289 287 285 282 280 278 276 273 271
288 291 292 294 296 298 298 299 299 300 301 301 302 304 304 304 304 303 303 304 304 304 304 304 303 303 302 301 300 299 297 295 294 293 291 288 286 283 280 277 274 272 269
290 292 293 295 297 298 299 300 301 302 303 304 305 305 305 305 305 305 306 306 307 306 306 306 305 305 304 302 300 299 298 297 296 295 293 291 289 286 283 279 276 273 270
291 293 295 297 298 300 301 302 303 304 305 305 306 306 306 306 307 307 308 308 308 308 308 308 307 306 305 303 302 301 300 299 299 299 297 296 294 292 289 285 280 277 273
293 295 297 298 300 301 303 304 305 305 306 306 307 307 308 308 309 310 310 310 310 310 310 309 309 309 308 306 305 305 304 303 302 302 301 301 301 300 297 293 288 284 280
295 297 298 300 302 303 304 305 306 307 307 308 309 309 310 311 311 311 311 311 311 311 310 310 311 311 311 311 310 309 309 308 306 303 304 306 306 305 302 299 295 291 287
297 298 300 302 304 305 306 307 307 308 309 310 311 311 312 312 312 313 313 313 313 312 312 312 313 314 314 314 315 314 314 312 309 307 310 310 308 307 305 302 299 296 292
298 300 302 304 305 306 307 308 309 310 311 311 312 312 313 313 314 314 315 315 314 313 313 314 316 316 317 318 320 320 320 319 315 311 314 313 308 306 303 302 300 298 296
300 302 304 306 307 307 308 309 311 312 312 313 313 314 314 315 315 316 316 315 314 313 314 317 318 320 321 321 324 326 326 325 320 317 319 319 313 311 307 306 304 300 295
302 304 305 306 307 309 310 311 312 313 314 314 315 315 316 317 317 316 316 316 315 315 317 318 320 323 324 326 328 330 331 332 328 324 326 327 323 320 315 313 312 307 299
304 305 306 307 309 310 311 312 313 314 314 315 316 316 317 318 317 317 317 318 317 318 319 320 322 324 327 328 329 331 333 337 337 330 329 331 331 330 325 324 322 319 314
305 306 307 309 310 311 312 313 313 314 315 316 317 318 319 319 318 318 318 319 319 319 320 321 322 323 325 328 330 332 336 340 342 339 335 335 336 338 335 335 336 335 333
Height
5799 5798 5797 5796 5794 5793 5791 5789 5787 5786 5784 5782 5780 5778 5776 5773 5771 5768 5766 5764 5762 5760 5758 5756 5754 5752 5750 5749 5747 5746 5745 5745 5744 5743 5742 5742 5742 5741 5741 5741 5742 5742 5742
5794 5793 5792 5790 5789 5787 5785 5783 5782 5781 5779 5776 5774 5772 5769 5766 5763 5761 5758 5756 5754 5751 5750 5748 5746 5744 5742 5740 5739 5737 5736 5734 5733 5732 5731 5730 5730 5729 5729 5729 5729 5730 5730
5788 5787 5786 5785 5783 5781 5780 5778 5777 5775 5773 5770 5767 5764 5761 5758 5755 5752 5750 5747 5745 5742 5740 5738 5736 5734 5732 5730 5728 5726 5725 5723 5721 5719 5718 5717 5716 5715 5715 5715 5715 5715 5716
5782 5781 5780 5779 5777 5776 5774 5772 5771 5769 5766 5763 5759 5756 5753 5749 5746 5743 5741 5738 5736 5733 5730 5728 5725 5723 5720 5718 5715 5713 5711 5709 5707 5705 5703 5702 5700 5699 5699 5698 5698 5699 5699
5776 5775 5774 5773 5771 5769 5767 5766 5764 5762 5759 5755 5751 5747 5744 5740 5737 5734 5732 5729 5726 5723 5720 5717 5713 5710 5707 5704 5702 5699 5696 5694 5691 5689 5687 5685 5683 5682 5681 5680 5680 5680 5680
5770 5769 5767 5766 5764 5762 5760 5758 5756 5754 5750 5747 5743 5739 5735 5731 5728 5725 5722 5718 5715 5711 5707 5704 5700 5696 5692 5689 5685 5682 5679 5676 5673 5670 5668 5666 5664 5662 5661 5660 5660 5659 5660
5763 5762 5760 5759 5757 5755 5752 5750 5748 5745 5742 5738 5734 5730 5726 5723 5719 5715 5711 5707 5703 5698 5694 5689 5685 5680 5676 5672 5668 5664 5660 5657 5654 5651 5648 5645 5643 5641 5640 5639 5638 5638 5638
5756 5755 5753 5751 5749 5747 5744 5741 5738 5735 5731 5728 5724 5721 5718 5715 5710 5705 5700 5694 5690 5685 5679 5674 5668 5663 5658 5654 5650 5645 5641 5637 5633 5630 5627 5624 5621 5619 5617 5615 5614 5614 5614
5749 5748 5746 5744 5741 5739 5735 5732 5729 5724 5720 5717 5713 5710 5707 5704 5702 5699 5692 5685 5679 5672 5666 5660 5653 5647 5641 5636 5631 5627 5622 5617 5613 5608 5604 5600 5597 5594 5592 5589 5588 5587 5587
5741 5740 5738 5735 5732 5729 5726 5722 5718 5714 5710 5705 5701 5697 5692 5687 5684 5684 5682 5674 5667 5660 5653 5646 5638 5631 5624 5618 5612 5607 5601 5596 5591 5585 5580 5575 5571 5566 5563 5560 5558 5557 5556
5733 5732 5729 5726 5723 5720 5716 5711 5707 5703 5698 5694 5689 5684 5679 5673 5667 5663 5662 5659 5653 5645 5636 5629 5621 5613 5605 5598 5592 5585 5578 5572 5565 5559 5553 5547 5541 5536 5531 5527 5524 5522 5520
5725 5723 5720 5717 5713 5709 5705 5700 5696 5691 5686 5681 5676 5670 5665 5659 5653 5647 5643 5639 5635 5629 5620 5612 5603 5594 5585 5576 5568 5560 5551 5543 5535 5528 5520 5513 5505 5499 5494 5489 5485 5482 5480
5716 5714 5711 5707 5703 5699 5694 5690 5685 5680 5674 5669 5663 5656 5649 5643 5636 5628 5623 5618 5614 5609 5601 5593 5582 5571 5560 5550 5540 5529 5519 5508 5499 5489 5480 5470 5462 5454 5448 5444 5440 5437 5435
5707 5704 5701 5697 5693 5688 5683 5679 5673 5668 5662 5656 5649 5642 5635 5627 5618 5610 5602 5595 5591 5589 5581 5573 5561 5548 5534 5521 5508 5495 5483 5470 5459 5447 5436 5425 5416 5407 5401 5396 5393 5390 5389
5698 5695 5691 5687 5682 5678 5673 5668 5662 5656 5649 5642 5635 5627 5619 5610 5601 5591 5581 5572 5564 5560 5559 5553 5538 5524 5506 5489 5472 5455 5440 5427 5413 5401 5390 5380 5372 5365 5359 5355 5352 5351 5350
5689 5685 5681 5677 5672 5667 5662 5656 5650 5643 5636 5628 5621 5612 5603 5594 5584 5573 5563 5553 5541 5531 5527 5525 5511 5496 5476 5455 5433 5413 5395 5380 5368 5357 5348 5340 5334 5329 5324 5322 5320 5320 5320
5680 5676 5672 5667 5662 5656 5650 5644 5637 5630 5622 5614 5605 5596 5586 5577 5567 5556 5545 5534 5520 5505 5494 5492 5479 5462 5443 5421 5400 5379 5361 5347 5337 5327 5318 5310 5304 5299 5296 5294 5293 5293 5293
5671 5667 5662 5657 5651 5645 5638 5632 5624 5616 5608 5599 5590 5580 5571 5561 5550 5539 5526 5513 5498 5480 5461 5450 5443 5426 5407 5386 5368 5354 5339 5325 5314 5305 5297 5289 5284 5279 5276 5273 5272 5272 5271
5661 5657 5652 5646 5639 5633 5626 5619 5611 5603 5593 5584 5574 5565 5555 5544 5532 5520 5506 5490 5473 5455 5434 5415 5402 5388 5375 5359 5345 5334 5322 5311 5300 5290 5282 5276 5270 5265 5261 5258 5256 5255 5254
5651 5646 5640 5634 5628 5621 5613 5606 5597 5588 5578 5568 5558 5548 5537 5525 5512 5498 5483 5465 5446 5428 5408 5389 5374 5361 5350 5339 5328 5318 5310 5300 5291 5280 5273 5267 5260 5255 5250 5247 5244 5243 5241
5641 5635 5629 5623 5616 5608 5600 5591 5583 5574 5564 5554 5543 5531 5519 5505 5490 5473 5456 5438 5418 5398 5381 5367 5355 5344 5334 5325 5316 5307 5299 5292 5282 5271 5266 5260 5252 5246 5241 5236 5233 5231 5229
5630 5624 5618 5611 5603 5595 5586 5577 5568 5560 5549 5539 5527 5515 5500 5485 5468 5451 5431 5411 5390 5371 5358 5349 5340 5330 5322 5313 5306 5298 5290 5283 5275 5267 5259 5253 5243 5237 5231 5227 5223 5219 5217
5619 5613 5606 5599 5590 5582 5573 5564 5555 5545 5534 5522 5509 5495 5480 5463 5444 5427 5410 5392 5374 5356 5344 5336 5328 5320 5313 5306 5298 5292 5284 5275 5266 5257 5251 5246 5237 5229 5223 5217 5213 5210 5207
5608 5601 5594 5586 5578 5569 5560 5551 5541 5530 5518 5504 5489 5473 5458 5441 5421 5404 5389 5375 5360 5346 5336 5327 5319 5312 5305 5297 5290 5284 5277 5271 5262 5250 5242 5237 5230 5222 5215 5210 5206 5203 5200
5597 5589 5582 5574 5566 5557 5547 5537 5526 5514 5501 5487 5470 5452 5434 5418 5401 5383 5370 5358 5348 5338 5328 5320 5312 5305 5298 5291 5284 5278 5272 5266 5259 5248 5238 5230 5223 5217 5211 5207 5202 5199 5196
5585 5578 5569 5561 5553 5544 5534 5523 5510 5499 5486 5470 5452 5432 5412 5394 5378 5364 5354 5346 5338 5330 5323 5316 5308 5301 5294 5287 5279 5272 5265 5259 5252 5245 5236 5227 5219 5213 5209 5205 5201 5197 5194